PEGASUS DEB, 39315

Orbit data source: Space-Track

PEGASUS DEB, 39315 is space debris in LEO originally from a launch on Thu, 19 May 1994 UTC launched from the Air Force Western Test Range (AFWTR). Debris objects in space refer to the collection of defunct objects orbiting the Earth. Examples of debris include non-operational satellites, rocket bodies, and fragments generated from explosions, collisions, or faulty payload assembly.

Loading next visibility...
Identifier
39315, 1994-029AFA
Orbit
LEO
Country
Flag of USUS
Related business
Manufacturer
Unknown
Mission
Spacecraft
Bus & Motor
Unknown
Mass
Unknown
Launch date (UTC)
1994-05-19 (32 years ago)
Launch vehicle
Unknown
Launch site
Air Force Western Test Range (AFWTR)
Object type
Payload
Rocket body
Debris
Shape & HBR
Unknown shape, 0.1 m
Radar Cross Section
Small (<0.1 m²)

Expand to show TLE details & history
Last TLE update: 13 hours ago

TLE from 13 hours ago
0 PEGASUS DEB
1 39315U 94029AFA 26235.68808206  .00001048  00000-0  30992-3 0  9990
2 39315  81.4961 221.7064 0384005 191.4965 167.7252 14.07591427671924
Epoch: 2026-08-23T16:30Z
TLE epoch observation values (Epoch: 2026-08-23T16:30:50.289Z)
Latitude
-0.00011°
Longitude
2.0163°
Altitude
1,142.923 km
Speed
7.143 km/s
True Right ascension
14h 46m 49s
True Declination
0° 00' 00"
Sunlit
Object was in daylight at epoch
Visualization orbit readout
Latitude
Unknown
Longitude
Unknown
Altitude
Unknown
Speed
Unknown
Apparent Right ascension
Unknown
Apparent Declination
Unknown
Sunlit
N/A
Visualization observer readout
Local Sidereal Time
21:08:45
Azimuth
Unknown
Elevation
Unknown
Doppler factor
Unknown
Orbital elements
Apogee altitude
1,142.917 km
Perigee altitude
586.653 km
Semi-major axis
7,242.922 km
Eccentricity
0.0384
Inclination
81.4961°
RAAN
221.7064°
Arg. of periapsis
191.4965°
True anomaly
168.6187°
Mean anomaly
167.7252°
Eccentric anomaly
168.17603°
Mean motion
3.52105 °/min
Orbital period
102.24 mins
BSTAR
0.00030992
Loading maneuver chart data...
Computing Atmospheric mass density...

Documentation

Showing up to 5 results
|